Location: Briis
(48.6240°N, 2.1211°E)
Time: 02:55:33
(UTC+00:00)

ASTEX 1 - Pass Details

Date: 25 September 2020
Orbit: 721 x 742 km, 92.7° (Epoch: 22 October)

Event Time Altitude Azimuth Distance (km) Brightness Sun altitude
Rises 02:44:04 0° 7° (N) 3,193 7.3 -28.6°
Reaches altitude 10° 02:46:24 10° 9° (N) 2,266 6.4 -28.3°
Enters shadow 02:51:25 74° 94° (E) 777 3.5 -27.6°
